カタログに戻る

STARLINK-30580

運用中通信VLEO
NORAD 58115·PAYLOAD·🇺🇸 United States

打ち上げ Oct 21, 2023 から Vandenberg Space Force Base

Loading…

次のパス (今後24時間)

TLE

最新Source: CelesTrak SupGP

元期: Sep 14, 2026, 22:38 UTC

1 58115C 23161U   26257.94354167 -.00007225  00000+0 -21333-3 0  2573
2 58115  53.1594   3.8003 0001210  71.7209 322.3073 15.34413938    15

AllMySatでSTARLINK-30580をリアルタイム追跡

Download on the App Store